Starlink 1234

operational
NORAD ID: 45190 Int'l Des: 2020-012 Owner: SPXS Country: US Constellation: starlink
LEOCIRCULARSTARLINK_TYPE

About Starlink 1234

Description loading...

Live Position

Loading 3D Globe...

Upcoming Passes

Altitude History

Altitude vs Time

uPlot chart will show altitude changes over time

Two-Line Element Set

1 45190U 20012N 25258.78316582 .00001199 00000-0 99370-4 0 9998
2 45190 53.0552 71.8031 0001305 88.6432 271.4707 15.06403100308932
Epoch: Sep 15, 2025 • Age: 15 hours

Current Status

Altitude 548.8 km
Velocity 7.59 km/s
Sub-Earth Point 32.80°N, 37.4°W
Launch Date Feb 17, 2020
Age 5.5 years
Type internet

Technical Details

Classification Payload
Mass 260.00 kg
Dry Mass 248.00 kg
Total Mass 260.00 kg
Length 0.20 m
Diameter 2.80 m
Span 9.00 m
Shape Box + pan
Manufacturer SPXS
Bus Type Starlink
Phase Status In Orbit
Owner/State SPXS/US

Large Constellations

Loading constellations...